Time,TemperatureF,DewpointF,PressureIn,WindDirection,WindDirectionDegrees,WindSpeedMPH,WindSpeedGustMPH,Humidity,HourlyPrecipIn,Conditions,Clouds,dailyrainin,SoftwareType,DateUTC
2013-04-03 00:00:00,51.2,42.2,29.62,ENE,76,0.0,0.0,71,0.00,,,0.00,VWS V14.01,2013-04-03 04:00:00,
2013-04-03 00:04:00,51.2,42.2,29.62,ENE,76,0.0,0.0,71,0.00,,,0.00,VWS V14.01,2013-04-03 04:04:00,
2013-04-03 00:09:00,50.8,43.5,29.62,ENE,76,0.0,0.0,76,0.00,,,0.00,VWS V14.01,2013-04-03 04:09:00,
2013-04-03 00:10:00,50.8,43.5,29.62,ENE,76,0.0,0.0,76,0.00,,,0.00,VWS V14.01,2013-04-03 04:10:00,
2013-04-03 00:19:00,51.0,45.9,29.62,ENE,76,0.0,0.0,83,0.00,,,0.00,VWS V14.01,2013-04-03 04:19:00,
2013-04-03 00:24:00,50.8,45.8,29.62,ENE,76,0.0,0.0,83,0.00,,,0.00,VWS V14.01,2013-04-03 04:24:00,
2013-04-03 00:29:00,50.8,45.8,29.62,ENE,76,0.0,0.0,83,0.00,,,0.00,VWS V14.01,2013-04-03 04:29:00,
2013-04-03 00:30:00,50.8,45.8,29.62,ENE,76,0.0,0.0,83,0.00,,,0.00,VWS V14.01,2013-04-03 04:30:00,
2013-04-03 00:39:00,50.8,45.8,29.62,ENE,76,0.0,0.0,83,0.00,,,0.00,VWS V14.01,2013-04-03 04:39:00,
2013-04-03 00:44:00,50.8,45.8,29.62,ENE,76,0.0,0.0,83,0.00,,,0.00,VWS V14.01,2013-04-03 04:44:00,
2013-04-03 00:49:00,50.8,45.8,29.62,ENE,76,0.0,0.0,83,0.00,,,0.00,VWS V14.01,2013-04-03 04:49:00,
2013-04-03 00:50:00,50.8,45.8,29.62,ENE,76,0.0,0.0,83,0.00,,,0.00,VWS V14.01,2013-04-03 04:50:00,
2013-04-03 00:54:00,51.0,45.9,29.62,ENE,76,0.0,0.0,83,0.00,,,0.00,VWS V14.01,2013-04-03 04:54:00,
2013-04-03 00:59:00,51.0,43.7,29.62,ENE,76,0.0,0.0,76,0.00,,,0.00,VWS V14.01,2013-04-03 04:59:00,
2013-04-03 01:00:00,51.0,43.7,29.62,ENE,76,0.0,0.0,76,0.00,,,0.00,VWS V14.01,2013-04-03 05:00:00,
2013-04-03 01:04:00,51.2,42.2,29.62,ENE,76,0.0,0.0,71,0.00,,,0.00,VWS V14.01,2013-04-03 05:04:00,
2013-04-03 01:09:00,51.3,41.5,29.62,ENE,76,0.0,0.0,69,0.00,,,0.00,VWS V14.01,2013-04-03 05:09:00,
2013-04-03 01:10:00,51.3,41.5,29.62,ENE,76,0.0,0.0,69,0.00,,,0.00,VWS V14.01,2013-04-03 05:10:00,
2013-04-03 01:14:00,51.5,40.8,29.62,ENE,76,0.0,0.0,67,0.00,,,0.00,VWS V14.01,2013-04-03 05:14:00,
2013-04-03 01:19:00,51.5,40.8,29.62,ENE,76,0.0,0.0,67,0.00,,,0.00,VWS V14.01,2013-04-03 05:19:00,
2013-04-03 01:20:00,51.5,40.8,29.62,ENE,76,0.0,0.0,67,0.00,,,0.00,VWS V14.01,2013-04-03 05:20:00,
2013-04-03 01:25:00,50.8,40.1,29.62,ENE,76,0.0,0.0,67,0.00,,,0.00,VWS V14.01,2013-04-03 05:25:00,
2013-04-03 01:30:00,50.4,40.7,29.62,ENE,76,0.0,0.0,69,0.00,,,0.00,VWS V14.01,2013-04-03 05:30:00,
2013-04-03 01:40:00,50.1,40.3,29.62,ENE,76,0.0,0.0,69,0.00,,,0.00,VWS V14.01,2013-04-03 05:40:00,
2013-04-03 01:45:00,48.8,41.6,29.62,ENE,76,0.0,0.0,76,0.00,,,0.00,VWS V14.01,2013-04-03 05:45:00,
2013-04-03 01:50:00,48.1,42.4,29.65,ENE,76,0.0,0.0,80,0.00,,,0.00,VWS V14.01,2013-04-03 05:50:00,
2013-04-03 01:55:00,47.7,43.5,29.65,ENE,76,0.0,0.0,85,0.00,,,0.00,VWS V14.01,2013-04-03 05:55:00,
2013-04-03 02:00:00,47.7,43.5,29.65,ENE,76,0.0,0.0,85,0.00,,,0.00,VWS V14.01,2013-04-03 06:00:00,
2013-04-03 02:05:00,47.0,42.8,29.65,ENE,76,0.0,0.0,85,0.00,,,0.00,VWS V14.01,2013-04-03 06:05:00,
2013-04-03 02:10:00,46.8,42.6,29.65,ENE,76,0.0,0.0,85,0.00,,,0.00,VWS V14.01,2013-04-03 06:10:00,
2013-04-03 02:15:00,46.5,42.2,29.65,ENE,76,0.0,0.0,85,0.00,,,0.00,VWS V14.01,2013-04-03 06:15:00,
2013-04-03 02:20:00,46.3,42.1,29.65,ENE,76,0.0,0.0,85,0.00,,,0.00,VWS V14.01,2013-04-03 06:20:00,
2013-04-03 02:25:00,46.3,42.1,29.65,ENE,76,0.0,0.0,85,0.00,,,0.00,VWS V14.01,2013-04-03 06:25:00,
2013-04-03 02:30:00,45.8,42.2,29.65,ENE,76,0.0,0.0,87,0.00,,,0.00,VWS V14.01,2013-04-03 06:30:00,
2013-04-03 02:35:00,45.6,42.1,29.65,ENE,76,0.0,0.0,87,0.00,,,0.00,VWS V14.01,2013-04-03 06:35:00,
2013-04-03 02:40:00,45.4,41.9,29.65,ENE,76,0.0,0.0,87,0.00,,,0.00,VWS V14.01,2013-04-03 06:40:00,
2013-04-03 02:45:00,45.4,42.6,29.65,ENE,76,0.0,0.0,90,0.00,,,0.00,VWS V14.01,2013-04-03 06:45:00,
2013-04-03 02:50:00,45.2,43.0,29.65,ENE,76,0.0,0.0,92,0.00,,,0.00,VWS V14.01,2013-04-03 06:50:00,
2013-04-03 02:55:00,45.2,43.0,29.65,ENE,76,0.0,0.0,92,0.00,,,0.00,VWS V14.01,2013-04-03 06:55:00,
2013-04-03 03:00:00,44.7,43.2,29.65,ENE,76,0.0,0.0,94,0.00,,,0.00,VWS V14.01,2013-04-03 07:00:00,
2013-04-03 03:05:00,44.5,43.0,29.65,ENE,76,0.0,0.0,94,0.00,,,0.00,VWS V14.01,2013-04-03 07:05:00,
2013-04-03 03:10:00,44.5,43.0,29.65,ENE,76,0.0,0.0,94,0.00,,,0.00,VWS V14.01,2013-04-03 07:10:00,
2013-04-03 03:15:00,44.5,43.0,29.65,ENE,76,0.0,0.0,94,0.00,,,0.00,VWS V14.01,2013-04-03 07:15:00,
2013-04-03 03:20:00,44.5,43.0,29.62,ENE,76,0.0,0.0,94,0.00,,,0.00,VWS V14.01,2013-04-03 07:20:00,
2013-04-03 03:25:00,44.3,42.8,29.62,ENE,76,0.0,0.0,94,0.00,,,0.00,VWS V14.01,2013-04-03 07:25:00,
2013-04-03 03:30:00,44.5,42.3,29.62,ENE,76,0.0,0.0,92,0.00,,,0.00,VWS V14.01,2013-04-03 07:30:00,
2013-04-03 03:35:00,44.5,42.3,29.62,ENE,76,0.0,0.0,92,0.00,,,0.00,VWS V14.01,2013-04-03 07:35:00,
2013-04-03 03:40:00,44.5,42.3,29.62,ENE,76,0.0,0.0,92,0.00,,,0.00,VWS V14.01,2013-04-03 07:40:00,
2013-04-03 03:45:00,44.5,42.3,29.62,ENE,76,0.0,0.0,92,0.00,,,0.00,VWS V14.01,2013-04-03 07:45:00,
2013-04-03 03:50:00,44.7,42.5,29.62,ENE,76,0.0,0.0,92,0.00,,,0.00,VWS V14.01,2013-04-03 07:50:00,
2013-04-03 03:55:00,44.9,42.0,29.62,ENE,76,0.0,0.0,90,0.00,,,0.00,VWS V14.01,2013-04-03 07:55:00,
2013-04-03 04:00:00,44.9,42.0,29.62,ENE,76,0.0,0.0,90,0.00,,,0.00,VWS V14.01,2013-04-03 08:00:00,
2013-04-03 04:05:00,45.0,42.2,29.62,ENE,76,0.0,0.0,90,0.00,,,0.00,VWS V14.01,2013-04-03 08:05:00,
2013-04-03 04:10:00,45.2,42.4,29.62,ENE,76,0.0,0.0,90,0.00,,,0.00,VWS V14.01,2013-04-03 08:10:00,
2013-04-03 04:15:00,44.7,44.4,29.62,ENE,76,0.0,0.0,99,0.00,,,0.00,VWS V14.01,2013-04-03 08:15:00,
2013-04-03 04:20:00,44.7,44.4,29.62,ENE,76,0.0,0.0,99,0.00,,,0.00,VWS V14.01,2013-04-03 08:20:00,
2013-04-03 04:25:00,44.7,44.4,29.62,ENE,76,0.0,0.0,99,0.00,,,0.00,VWS V14.01,2013-04-03 08:25:00,
2013-04-03 04:30:00,44.7,44.4,29.62,ENE,76,0.0,0.0,99,0.00,,,0.00,VWS V14.01,2013-04-03 08:30:00,
2013-04-03 04:35:00,43.2,43.2,29.62,ENE,76,0.0,0.0,100,0.00,,,0.00,VWS V14.01,2013-04-03 08:35:00,
2013-04-03 04:40:00,43.2,43.2,29.62,ENE,76,0.0,0.0,100,0.00,,,0.00,VWS V14.01,2013-04-03 08:40:00,
2013-04-03 04:45:00,43.2,43.2,29.62,ENE,76,0.0,0.0,100,0.00,,,0.00,VWS V14.01,2013-04-03 08:45:00,
2013-04-03 04:50:00,43.2,43.2,29.62,ENE,76,0.0,0.0,100,0.00,,,0.00,VWS V14.01,2013-04-03 08:50:00,
2013-04-03 04:55:00,44.0,44.0,29.62,ENE,76,0.0,0.0,100,0.00,,,0.00,VWS V14.01,2013-04-03 08:55:00,
2013-04-03 05:00:00,43.8,43.8,29.62,ENE,76,0.0,0.0,100,0.00,,,0.00,VWS V14.01,2013-04-03 09:00:00,
2013-04-03 05:05:00,43.8,43.8,29.62,ENE,76,0.0,0.0,100,0.00,,,0.00,VWS V14.01,2013-04-03 09:05:00,
2013-04-03 05:10:00,43.8,43.8,29.62,ENE,76,0.0,0.0,100,0.00,,,0.00,VWS V14.01,2013-04-03 09:10:00,
2013-04-03 05:15:00,43.8,43.8,29.62,ENE,76,0.0,0.0,100,0.00,,,0.00,VWS V14.01,2013-04-03 09:15:00,
2013-04-03 05:20:00,44.0,43.7,29.62,ENE,76,0.0,0.0,99,0.00,,,0.00,VWS V14.01,2013-04-03 09:20:00,
2013-04-03 05:25:00,43.6,43.6,29.62,ENE,76,0.0,0.0,100,0.00,,,0.00,VWS V14.01,2013-04-03 09:25:00,
2013-04-03 05:30:00,43.4,43.4,29.62,ENE,76,0.0,0.0,100,0.00,,,0.00,VWS V14.01,2013-04-03 09:30:00,
2013-04-03 05:35:00,43.4,43.4,29.62,ENE,76,0.0,0.0,100,0.00,,,0.00,VWS V14.01,2013-04-03 09:35:00,
2013-04-03 05:40:00,43.2,43.2,29.62,ENE,76,0.0,0.0,100,0.00,,,0.00,VWS V14.01,2013-04-03 09:40:00,
2013-04-03 05:45:00,43.8,43.8,29.62,ENE,76,0.0,0.0,100,0.00,,,0.00,VWS V14.01,2013-04-03 09:45:00,
2013-04-03 05:50:00,44.0,44.0,29.62,ENE,76,0.0,0.0,100,0.00,,,0.00,VWS V14.01,2013-04-03 09:50:00,
2013-04-03 05:55:00,44.0,44.0,29.62,ENE,76,0.0,0.0,100,0.00,,,0.00,VWS V14.01,2013-04-03 09:55:00,
2013-04-03 06:00:00,44.1,44.1,29.62,ENE,76,0.0,0.0,100,0.00,,,0.00,VWS V14.01,2013-04-03 10:00:00,
2013-04-03 06:05:00,43.8,43.8,29.62,ENE,76,0.0,0.0,100,0.00,,,0.00,VWS V14.01,2013-04-03 10:05:00,
2013-04-03 06:10:00,43.6,43.6,29.62,ENE,76,0.0,0.0,100,0.00,,,0.00,VWS V14.01,2013-04-03 10:10:00,
2013-04-03 06:15:00,43.2,43.2,29.62,ENE,76,0.0,0.0,100,0.00,,,0.00,VWS V14.01,2013-04-03 10:15:00,
2013-04-03 06:20:00,43.2,43.2,29.62,ENE,76,0.0,0.0,100,0.00,,,0.00,VWS V14.01,2013-04-03 10:20:00,
2013-04-03 06:25:00,43.2,43.2,29.62,ENE,76,0.0,0.0,100,0.00,,,0.00,VWS V14.01,2013-04-03 10:25:00,
2013-04-03 06:30:00,42.7,42.7,29.62,ENE,76,0.0,0.0,100,0.00,,,0.00,VWS V14.01,2013-04-03 10:30:00,
2013-04-03 06:35:00,42.3,42.3,29.62,ENE,76,0.0,0.0,100,0.00,,,0.00,VWS V14.01,2013-04-03 10:35:00,
2013-04-03 06:40:00,42.2,42.2,29.62,ENE,76,0.0,0.0,100,0.00,,,0.00,VWS V14.01,2013-04-03 10:40:00,
2013-04-03 06:45:00,42.2,42.2,29.62,ENE,76,0.0,0.0,100,0.00,,,0.00,VWS V14.01,2013-04-03 10:45:00,
2013-04-03 06:50:00,42.2,42.2,29.62,ENE,76,0.0,0.0,100,0.00,,,0.00,VWS V14.01,2013-04-03 10:50:00,
2013-04-03 06:55:00,41.3,41.3,29.62,ENE,76,0.0,0.0,100,0.00,,,0.00,VWS V14.01,2013-04-03 10:55:00,
2013-04-03 07:00:00,41.4,41.4,29.62,ENE,76,0.0,0.0,100,0.00,,,0.00,VWS V14.01,2013-04-03 11:00:00,
2013-04-03 07:05:00,41.4,41.4,29.62,ENE,76,0.0,0.0,100,0.00,,,0.00,VWS V14.01,2013-04-03 11:05:00,
2013-04-03 07:10:00,41.4,41.4,29.62,ENE,76,0.0,0.0,100,0.00,,,0.00,VWS V14.01,2013-04-03 11:10:00,
2013-04-03 07:15:00,41.3,41.3,29.62,ENE,76,0.0,0.0,100,0.00,,,0.00,VWS V14.01,2013-04-03 11:15:00,
2013-04-03 07:20:00,41.3,41.3,29.62,ENE,76,0.0,0.0,100,0.00,,,0.00,VWS V14.01,2013-04-03 11:20:00,
2013-04-03 07:25:00,41.3,41.3,29.62,ENE,76,0.0,0.0,100,0.00,,,0.00,VWS V14.01,2013-04-03 11:25:00,
2013-04-03 07:30:00,41.3,41.3,29.62,ENE,76,0.0,0.0,100,0.00,,,0.00,VWS V14.01,2013-04-03 11:30:00,
2013-04-03 07:35:00,41.3,41.3,29.62,ENE,76,0.0,0.0,100,0.00,,,0.00,VWS V14.01,2013-04-03 11:35:00,
2013-04-03 07:40:00,41.8,41.8,29.62,ENE,76,0.0,0.0,100,0.00,,,0.00,VWS V14.01,2013-04-03 11:40:00,
2013-04-03 07:45:00,42.2,42.2,29.62,ENE,76,0.0,0.0,100,0.00,,,0.00,VWS V14.01,2013-04-03 11:45:00,
2013-04-03 07:50:00,42.2,42.2,29.62,South,169,0.0,0.0,100,0.00,,,0.00,VWS V14.01,2013-04-03 11:50:00,
2013-04-03 07:55:00,42.2,42.2,29.62,South,186,2.2,2.2,100,0.00,,,0.00,VWS V14.01,2013-04-03 11:55:00,
2013-04-03 08:00:00,44.1,41.3,29.62,South,186,0.0,2.2,90,0.00,,,0.00,VWS V14.01,2013-04-03 12:00:00,
2013-04-03 08:05:00,45.2,42.4,29.62,SSW,206,0.0,0.0,90,0.00,,,0.00,VWS V14.01,2013-04-03 12:05:00,
2013-04-03 08:10:00,45.6,42.1,29.62,South,176,0.0,0.0,87,0.00,,,0.00,VWS V14.01,2013-04-03 12:10:00,
2013-04-03 08:15:00,46.1,41.9,29.62,SSW,192,0.0,0.0,85,0.00,,,0.00,VWS V14.01,2013-04-03 12:15:00,
2013-04-03 08:20:00,46.8,40.4,29.62,SW,231,0.0,2.2,78,0.00,,,0.00,VWS V14.01,2013-04-03 12:20:00,
2013-04-03 08:25:00,47.7,41.3,29.62,WSW,243,0.0,2.2,78,0.00,,,0.00,VWS V14.01,2013-04-03 12:25:00,
2013-04-03 08:30:00,48.1,40.9,29.62,SSW,197,0.0,2.2,76,0.00,,,0.00,VWS V14.01,2013-04-03 12:30:00,
2013-04-03 08:35:00,48.5,38.8,29.62,South,184,0.0,0.0,69,0.00,,,0.00,VWS V14.01,2013-04-03 12:35:00,
2013-04-03 08:40:00,48.5,38.8,29.62,South,190,3.1,3.1,69,0.00,,,0.00,VWS V14.01,2013-04-03 12:40:00,
2013-04-03 08:45:00,48.5,38.8,29.62,WNW,295,0.0,4.0,69,0.00,,,0.00,VWS V14.01,2013-04-03 12:45:00,
2013-04-03 08:50:00,49.9,38.4,29.62,SSW,194,3.6,4.0,64,0.00,,,0.00,VWS V14.01,2013-04-03 12:50:00,
2013-04-03 08:55:00,50.3,37.8,29.62,West,262,0.0,3.6,62,0.00,,,0.00,VWS V14.01,2013-04-03 12:55:00,
2013-04-03 09:00:00,50.3,37.8,29.62,West,259,0.0,3.6,62,0.00,,,0.00,VWS V14.01,2013-04-03 13:00:00,
2013-04-03 09:05:00,50.3,37.8,29.62,WSW,237,0.0,0.0,62,0.00,,,0.00,VWS V14.01,2013-04-03 13:05:00,
2013-04-03 09:10:00,50.3,37.8,29.62,SE,137,0.0,2.2,62,0.00,,,0.00,VWS V14.01,2013-04-03 13:10:00,
2013-04-03 09:15:00,51.5,39.0,29.62,WSW,251,0.0,0.0,62,0.00,,,0.00,VWS V14.01,2013-04-03 13:15:00,
2013-04-03 09:20:00,51.7,39.2,29.62,SSW,209,2.2,3.6,62,0.00,,,0.00,VWS V14.01,2013-04-03 13:20:00,
2013-04-03 09:25:00,51.7,39.2,29.62,WSW,242,0.0,2.7,62,0.00,,,0.00,VWS V14.01,2013-04-03 13:25:00,
2013-04-03 09:30:00,51.7,39.2,29.62,West,261,3.1,3.1,62,0.00,,,0.00,VWS V14.01,2013-04-03 13:30:00,
2013-04-03 09:36:00,52.1,38.5,29.68,South,182,0.0,3.6,60,0.00,,,0.00,VWS V14.01,2013-04-03 13:36:00,
2013-04-03 09:40:00,52.2,38.7,29.68,NW,314,2.7,3.6,60,0.00,,,0.00,VWS V14.01,2013-04-03 13:40:00,
2013-04-03 09:41:00,52.4,38.9,29.68,SSE,165,0.0,2.7,60,0.00,,,0.00,VWS V14.01,2013-04-03 13:41:00,
2013-04-03 09:46:00,52.8,39.2,29.68,WNW,286,3.1,3.6,60,0.00,,,0.00,VWS V14.01,2013-04-03 13:46:00,
2013-04-03 09:50:00,52.8,39.2,29.68,East,81,0.0,3.6,60,0.00,,,0.00,VWS V14.01,2013-04-03 13:50:00,
2013-04-03 09:51:00,52.8,39.2,29.68,SW,221,0.0,0.0,60,0.00,,,0.00,VWS V14.01,2013-04-03 13:51:00,
2013-04-03 09:56:00,52.8,39.2,29.68,SSE,156,0.0,3.6,60,0.00,,,0.00,VWS V14.01,2013-04-03 13:56:00,
2013-04-03 10:00:00,54.6,39.9,29.68,SSE,157,0.0,3.6,58,0.00,,,0.00,VWS V14.01,2013-04-03 14:00:00,
2013-04-03 10:01:00,54.4,39.7,29.68,SSE,157,0.0,0.0,58,0.00,,,0.00,VWS V14.01,2013-04-03 14:01:00,
2013-04-03 10:06:00,54.6,39.9,29.68,SW,218,3.6,3.6,58,0.00,,,0.00,VWS V14.01,2013-04-03 14:06:00,
2013-04-03 10:11:00,54.6,39.9,29.68,WSW,246,3.1,3.1,58,0.00,,,0.00,VWS V14.01,2013-04-03 14:11:00,
2013-04-03 10:16:00,54.6,39.9,29.68,WNW,296,5.4,5.8,58,0.00,,,0.00,VWS V14.01,2013-04-03 14:16:00,
2013-04-03 10:20:00,55.7,40.9,29.68,South,170,2.2,5.8,58,0.00,,,0.00,VWS V14.01,2013-04-03 14:20:00,
2013-04-03 10:21:00,55.7,40.9,29.68,WSW,251,5.8,5.8,58,0.00,,,0.00,VWS V14.01,2013-04-03 14:21:00,
2013-04-03 10:26:00,56.4,40.5,29.68,South,176,0.0,5.8,55,0.00,,,0.00,VWS V14.01,2013-04-03 14:26:00,
2013-04-03 10:30:00,56.7,40.9,29.68,SW,227,2.7,5.8,55,0.00,,,0.00,VWS V14.01,2013-04-03 14:30:00,
2013-04-03 10:31:00,56.7,40.9,29.68,WSW,247,0.0,2.7,55,0.00,,,0.00,VWS V14.01,2013-04-03 14:31:00,
2013-04-03 10:36:00,57.1,41.2,29.68,SSE,167,2.7,5.8,55,0.00,,,0.00,VWS V14.01,2013-04-03 14:36:00,
2013-04-03 10:40:00,57.1,41.2,29.68,South,187,0.0,5.8,55,0.00,,,0.00,VWS V14.01,2013-04-03 14:40:00,
2013-04-03 10:41:00,57.1,41.2,29.68,West,261,3.6,4.9,55,0.00,,,0.00,VWS V14.01,2013-04-03 14:41:00,
2013-04-03 10:46:00,57.3,39.1,29.68,WSW,257,3.1,5.4,51,0.00,,,0.00,VWS V14.01,2013-04-03 14:46:00,
2013-04-03 10:50:00,57.3,39.1,29.68,North,350,0.0,5.4,51,0.00,,,0.00,VWS V14.01,2013-04-03 14:50:00,
2013-04-03 10:51:00,57.3,39.1,29.68,WSW,256,0.0,0.0,51,0.00,,,0.00,VWS V14.01,2013-04-03 14:51:00,
2013-04-03 11:00:00,58.0,39.8,29.68,SW,233,3.6,7.6,51,0.00,,,0.00,VWS V14.01,2013-04-03 15:00:00,
2013-04-03 11:06:00,58.0,39.8,29.68,South,178,2.7,3.6,51,0.00,,,0.00,VWS V14.01,2013-04-03 15:06:00,
2013-04-03 11:10:00,59.1,40.8,29.68,South,184,3.1,3.6,51,0.00,,,0.00,VWS V14.01,2013-04-03 15:10:00,
2013-04-03 11:11:00,58.9,40.6,29.68,South,184,3.1,3.1,51,0.00,,,0.00,VWS V14.01,2013-04-03 15:11:00,
2013-04-03 11:20:00,58.7,40.5,29.68,West,267,0.0,5.4,51,0.00,,,0.00,VWS V14.01,2013-04-03 15:20:00,
2013-04-03 11:21:00,58.7,40.5,29.68,SW,228,2.7,4.9,51,0.00,,,0.00,VWS V14.01,2013-04-03 15:21:00,
2013-04-03 11:26:00,58.7,40.5,29.68,West,276,2.7,4.9,51,0.00,,,0.00,VWS V14.01,2013-04-03 15:26:00,
2013-04-03 11:30:00,58.7,40.5,29.68,South,190,3.1,4.9,51,0.00,,,0.00,VWS V14.01,2013-04-03 15:30:00,
2013-04-03 11:37:00,59.4,41.1,29.71,SSW,196,2.2,4.9,51,0.00,,,0.00,VWS V14.01,2013-04-03 15:37:00,
2013-04-03 11:42:00,59.4,41.1,29.71,SW,221,2.2,2.7,51,0.00,,,0.00,VWS V14.01,2013-04-03 15:42:00,
2013-04-03 11:47:00,59.4,41.1,29.71,SSW,199,2.7,3.6,51,0.00,,,0.00,VWS V14.01,2013-04-03 15:47:00,
2013-04-03 11:50:00,59.4,41.1,29.71,WSW,240,2.2,3.6,51,0.00,,,0.00,VWS V14.01,2013-04-03 15:50:00,
2013-04-03 11:57:00,61.1,41.4,29.71,South,189,2.2,3.6,48,0.00,,,0.00,VWS V14.01,2013-04-03 15:57:00,
2013-04-03 12:00:00,61.2,41.6,29.71,South,190,4.9,4.9,48,0.00,,,0.00,VWS V14.01,2013-04-03 16:00:00,
2013-04-03 12:02:00,61.4,41.7,29.71,SE,144,0.0,5.4,48,0.00,,,0.00,VWS V14.01,2013-04-03 16:02:00,
2013-04-03 12:07:00,61.4,41.7,29.71,WNW,287,4.0,5.4,48,0.00,,,0.00,VWS V14.01,2013-04-03 16:07:00,
2013-04-03 12:10:00,61.4,41.7,29.71,SE,125,5.4,5.4,48,0.00,,,0.00,VWS V14.01,2013-04-03 16:10:00,
2013-04-03 12:12:00,61.4,41.7,29.71,SSW,196,6.7,6.7,48,0.00,,,0.00,VWS V14.01,2013-04-03 16:12:00,
2013-04-03 12:17:00,61.4,41.7,29.71,WSW,242,2.2,6.7,48,0.00,,,0.00,VWS V14.01,2013-04-03 16:17:00,
2013-04-03 12:20:00,62.5,42.7,29.71,NE,41,4.0,6.7,48,0.00,,,0.00,VWS V14.01,2013-04-03 16:20:00,
2013-04-03 12:22:00,62.7,42.9,29.71,ENE,66,2.7,4.0,48,0.00,,,0.00,VWS V14.01,2013-04-03 16:22:00,
2013-04-03 12:27:00,63.0,43.2,29.71,SSE,162,3.1,6.3,48,0.00,,,0.00,VWS V14.01,2013-04-03 16:27:00,
2013-04-03 12:30:00,63.0,43.2,29.71,West,260,2.2,6.3,48,0.00,,,0.00,VWS V14.01,2013-04-03 16:30:00,
2013-04-03 12:32:00,62.9,43.1,29.71,WSW,239,2.7,2.7,48,0.00,,,0.00,VWS V14.01,2013-04-03 16:32:00,
2013-04-03 12:37:00,62.9,43.1,29.71,South,178,3.1,4.0,48,0.00,,,0.00,VWS V14.01,2013-04-03 16:37:00,
2013-04-03 12:42:00,62.5,42.7,29.71,SW,215,0.0,4.0,48,0.00,,,0.00,VWS V14.01,2013-04-03 16:42:00,
2013-04-03 12:47:00,63.0,43.2,29.71,West,272,0.0,4.0,48,0.00,,,0.00,VWS V14.01,2013-04-03 16:47:00,
2013-04-03 12:50:00,63.0,43.2,29.71,SSW,199,0.0,4.0,48,0.00,,,0.00,VWS V14.01,2013-04-03 16:50:00,
2013-04-03 12:52:00,63.2,43.4,29.71,South,170,2.7,2.7,48,0.00,,,0.00,VWS V14.01,2013-04-03 16:52:00,
2013-04-03 12:57:00,63.2,43.4,29.71,SW,221,0.0,5.4,48,0.00,,,0.00,VWS V14.01,2013-04-03 16:57:00,
2013-04-03 13:02:00,63.2,43.4,29.71,SSW,213,5.8,5.8,48,0.00,,,0.00,VWS V14.01,2013-04-03 17:02:00,
2013-04-03 13:07:00,63.6,39.7,29.71,SSW,201,0.0,5.8,41,0.00,,,0.00,VWS V14.01,2013-04-03 17:07:00,
2013-04-03 13:12:00,63.8,39.9,29.71,South,179,4.9,5.4,41,0.00,,,0.00,VWS V14.01,2013-04-03 17:12:00,
2013-04-03 13:17:00,63.8,42.6,29.71,NNW,330,2.7,5.4,46,0.00,,,0.00,VWS V14.01,2013-04-03 17:17:00,
2013-04-03 13:22:00,63.8,42.6,29.71,North,353,4.0,4.0,46,0.00,,,0.00,VWS V14.01,2013-04-03 17:22:00,
2013-04-03 13:27:00,63.8,42.6,29.71,North,350,0.0,4.0,46,0.00,,,0.00,VWS V14.01,2013-04-03 17:27:00,
2013-04-03 13:32:00,62.7,42.9,29.71,SW,222,0.0,0.0,48,0.00,,,0.00,VWS V14.01,2013-04-03 17:32:00,
2013-04-03 13:37:00,63.2,43.4,29.71,West,263,3.6,3.6,48,0.00,,,0.00,VWS V14.01,2013-04-03 17:37:00,
2013-04-03 13:43:00,63.2,39.4,29.71,WSW,240,2.2,5.8,41,0.00,,,0.00,VWS V14.01,2013-04-03 17:43:00,
2013-04-03 13:48:00,63.2,39.4,29.71,SSW,199,3.1,5.8,41,0.00,,,0.00,VWS V14.01,2013-04-03 17:48:00,
2013-04-03 13:53:00,63.4,39.6,29.71,SSW,213,2.2,3.1,41,0.00,,,0.00,VWS V14.01,2013-04-03 17:53:00,
2013-04-03 13:58:00,63.6,39.7,29.71,NE,51,0.0,3.1,41,0.00,,,0.00,VWS V14.01,2013-04-03 17:58:00,
2013-04-03 14:00:00,63.6,42.4,29.71,West,279,2.7,3.1,46,0.00,,,0.00,VWS V14.01,2013-04-03 18:00:00,
2013-04-03 14:08:00,63.6,42.4,29.71,NW,317,4.0,4.0,46,0.00,,,0.00,VWS V14.01,2013-04-03 18:08:00,
2013-04-03 14:13:00,63.6,42.4,29.71,SSW,193,0.0,2.7,46,0.00,,,0.00,VWS V14.01,2013-04-03 18:13:00,
2013-04-03 14:18:00,63.2,39.4,29.71,SSE,162,0.0,4.0,41,0.00,,,0.00,VWS V14.01,2013-04-03 18:18:00,
2013-04-03 14:20:00,63.2,39.4,29.71,South,176,0.0,4.0,41,0.00,,,0.00,VWS V14.01,2013-04-03 18:20:00,
2013-04-03 14:23:00,63.2,39.4,29.71,South,177,2.2,3.6,41,0.00,,,0.00,VWS V14.01,2013-04-03 18:23:00,
2013-04-03 14:28:00,63.2,39.4,29.71,SSE,168,3.1,3.6,41,0.00,,,0.00,VWS V14.01,2013-04-03 18:28:00,
2013-04-03 14:30:00,63.2,39.4,29.71,SSE,157,2.2,5.4,41,0.00,,,0.00,VWS V14.01,2013-04-03 18:30:00,
2013-04-03 14:33:00,63.2,39.4,29.71,South,169,0.0,3.1,41,0.00,,,0.00,VWS V14.01,2013-04-03 18:33:00,
2013-04-03 14:38:00,63.6,39.7,29.71,WSW,250,2.7,4.0,41,0.00,,,0.00,VWS V14.01,2013-04-03 18:38:00,
2013-04-03 14:43:00,63.4,39.6,29.71,West,268,0.0,3.1,41,0.00,,,0.00,VWS V14.01,2013-04-03 18:43:00,
2013-04-03 14:48:00,63.2,39.4,29.71,SW,232,0.0,3.6,41,0.00,,,0.00,VWS V14.01,2013-04-03 18:48:00,
2013-04-03 14:50:00,63.2,39.4,29.71,NE,39,0.0,3.6,41,0.00,,,0.00,VWS V14.01,2013-04-03 18:50:00,
2013-04-03 14:53:00,63.4,39.6,29.71,SW,223,2.2,5.8,41,0.00,,,0.00,VWS V14.01,2013-04-03 18:53:00,
2013-04-03 14:58:00,63.4,39.6,29.71,South,176,0.0,5.8,41,0.00,,,0.00,VWS V14.01,2013-04-03 18:58:00,
2013-04-03 15:00:00,63.4,39.6,29.71,SW,226,0.0,5.8,41,0.00,,,0.00,VWS V14.01,2013-04-03 19:00:00,
2013-04-03 15:03:00,63.2,39.4,29.71,SSW,194,0.0,2.7,41,0.00,,,0.00,VWS V14.01,2013-04-03 19:03:00,
2013-04-03 15:08:00,63.4,39.6,29.71,NE,42,2.7,2.7,41,0.00,,,0.00,VWS V14.01,2013-04-03 19:08:00,
2013-04-03 15:13:00,63.6,39.7,29.71,SW,217,2.7,3.1,41,0.00,,,0.00,VWS V14.01,2013-04-03 19:13:00,
2013-04-03 15:18:00,63.6,39.7,29.71,South,184,3.6,3.6,41,0.00,,,0.00,VWS V14.01,2013-04-03 19:18:00,
2013-04-03 15:23:00,63.6,39.7,29.71,NNW,329,0.0,2.7,41,0.00,,,0.00,VWS V14.01,2013-04-03 19:23:00,
2013-04-03 15:28:00,63.0,39.2,29.71,SW,216,0.0,5.4,41,0.00,,,0.00,VWS V14.01,2013-04-03 19:28:00,
2013-04-03 15:30:00,63.0,39.2,29.71,WSW,237,0.0,5.4,41,0.00,,,0.00,VWS V14.01,2013-04-03 19:30:00,
2013-04-03 15:33:00,63.0,39.2,29.71,WSW,258,0.0,2.7,41,0.00,,,0.00,VWS V14.01,2013-04-03 19:33:00,
2013-04-03 15:38:00,63.0,39.2,29.71,West,269,0.0,3.6,41,0.00,,,0.00,VWS V14.01,2013-04-03 19:38:00,
2013-04-03 15:40:00,63.0,39.2,29.71,SW,226,0.0,3.6,41,0.00,,,0.00,VWS V14.01,2013-04-03 19:40:00,
2013-04-03 15:43:00,63.0,39.2,29.71,NNW,336,0.0,3.1,41,0.00,,,0.00,VWS V14.01,2013-04-03 19:43:00,
2013-04-03 15:48:00,63.0,39.2,29.71,NE,37,0.0,3.1,41,0.00,,,0.00,VWS V14.01,2013-04-03 19:48:00,
2013-04-03 15:50:00,62.3,38.6,29.71,West,267,3.1,3.6,41,0.00,,,0.00,VWS V14.01,2013-04-03 19:50:00,
2013-04-03 15:53:00,62.3,42.6,29.71,South,185,0.0,3.1,48,0.00,,,0.00,VWS V14.01,2013-04-03 19:53:00,
2013-04-03 15:58:00,62.5,38.8,29.71,NW,322,0.0,3.1,41,0.00,,,0.00,VWS V14.01,2013-04-03 19:58:00,
2013-04-03 16:00:00,62.5,38.8,29.71,WSW,247,2.7,3.1,41,0.00,,,0.00,VWS V14.01,2013-04-03 20:00:00,
2013-04-03 16:03:00,62.5,38.8,29.71,South,191,0.0,4.0,41,0.00,,,0.00,VWS V14.01,2013-04-03 20:03:00,
2013-04-03 16:08:00,62.5,38.8,29.71,SW,214,4.0,4.0,41,0.00,,,0.00,VWS V14.01,2013-04-03 20:08:00,
2013-04-03 16:13:00,62.5,38.8,29.71,WSW,253,3.1,3.1,41,0.00,,,0.00,VWS V14.01,2013-04-03 20:13:00,
2013-04-03 16:18:00,62.5,38.8,29.71,SSW,195,0.0,3.1,41,0.00,,,0.00,VWS V14.01,2013-04-03 20:18:00,
2013-04-03 16:20:00,62.5,42.7,29.71,East,92,0.0,3.1,48,0.00,,,0.00,VWS V14.01,2013-04-03 20:20:00,
2013-04-03 16:23:00,62.5,38.8,29.71,WSW,237,0.0,2.7,41,0.00,,,0.00,VWS V14.01,2013-04-03 20:23:00,
2013-04-03 16:28:00,62.5,38.8,29.71,North,1,2.7,3.6,41,0.00,,,0.00,VWS V14.01,2013-04-03 20:28:00,
2013-04-03 16:30:00,62.5,38.8,29.71,SSE,149,2.2,3.6,41,0.00,,,0.00,VWS V14.01,2013-04-03 20:30:00,
2013-04-03 16:33:00,62.5,38.8,29.71,SW,229,0.0,2.2,41,0.00,,,0.00,VWS V14.01,2013-04-03 20:33:00,
2013-04-03 16:38:00,62.0,42.2,29.71,SSW,198,0.0,2.2,48,0.00,,,0.00,VWS V14.01,2013-04-03 20:38:00,
2013-04-03 16:40:00,62.1,38.4,29.71,South,181,0.0,2.2,41,0.00,,,0.00,VWS V14.01,2013-04-03 20:40:00,
2013-04-03 16:43:00,62.1,42.4,29.71,South,180,0.0,2.7,48,0.00,,,0.00,VWS V14.01,2013-04-03 20:43:00,
2013-04-03 16:48:00,62.0,38.3,29.71,West,265,3.1,5.8,41,0.00,,,0.00,VWS V14.01,2013-04-03 20:48:00,
2013-04-03 16:53:00,61.6,37.9,29.71,WSW,245,2.2,3.1,41,0.00,,,0.00,VWS V14.01,2013-04-03 20:53:00,
2013-04-03 16:58:00,61.2,39.0,29.71,South,178,0.0,3.1,44,0.00,,,0.00,VWS V14.01,2013-04-03 20:58:00,
2013-04-03 17:00:00,61.2,39.0,29.71,ESE,112,0.0,3.1,44,0.00,,,0.00,VWS V14.01,2013-04-03 21:00:00,
2013-04-03 17:10:00,61.2,39.0,29.71,NW,316,0.0,4.0,44,0.00,,,0.00,VWS V14.01,2013-04-03 21:10:00,
2013-04-03 17:13:00,60.9,41.2,29.71,SSE,168,0.0,3.1,48,0.00,,,0.00,VWS V14.01,2013-04-03 21:13:00,
2013-04-03 17:20:00,60.9,41.2,29.71,SSE,165,2.2,3.1,48,0.00,,,0.00,VWS V14.01,2013-04-03 21:20:00,
2013-04-03 17:24:00,60.9,41.2,29.71,SSW,205,0.0,2.2,48,0.00,,,0.00,VWS V14.01,2013-04-03 21:24:00,
2013-04-03 17:29:00,60.7,41.1,29.71,South,171,0.0,2.2,48,0.00,,,0.00,VWS V14.01,2013-04-03 21:29:00,
2013-04-03 17:34:00,60.7,41.1,29.71,West,268,0.0,2.7,48,0.00,,,0.00,VWS V14.01,2013-04-03 21:34:00,
2013-04-03 17:39:00,60.7,41.1,29.71,WSW,238,0.0,2.7,48,0.00,,,0.00,VWS V14.01,2013-04-03 21:39:00,
2013-04-03 17:40:00,60.7,41.1,29.71,WSW,238,0.0,2.7,48,0.00,,,0.00,VWS V14.01,2013-04-03 21:40:00,
2013-04-03 17:44:00,60.7,41.1,29.71,WSW,243,0.0,0.0,48,0.00,,,0.00,VWS V14.01,2013-04-03 21:44:00,
2013-04-03 17:49:00,60.5,40.9,29.71,SW,226,0.0,0.0,48,0.00,,,0.00,VWS V14.01,2013-04-03 21:49:00,
2013-04-03 17:50:00,60.5,40.9,29.71,SW,221,0.0,0.0,48,0.00,,,0.00,VWS V14.01,2013-04-03 21:50:00,
2013-04-03 17:54:00,60.5,40.9,29.71,South,183,0.0,0.0,48,0.00,,,0.00,VWS V14.01,2013-04-03 21:54:00,
2013-04-03 17:59:00,60.5,40.9,29.71,WSW,253,0.0,0.0,48,0.00,,,0.00,VWS V14.01,2013-04-03 21:59:00,
2013-04-03 18:00:00,60.5,40.9,29.71,WSW,253,0.0,0.0,48,0.00,,,0.00,VWS V14.01,2013-04-03 22:00:00,
2013-04-03 18:04:00,60.5,40.9,29.71,WSW,253,0.0,0.0,48,0.00,,,0.00,VWS V14.01,2013-04-03 22:04:00,
2013-04-03 18:09:00,60.5,40.9,29.71,SSW,193,0.0,0.0,48,0.00,,,0.00,VWS V14.01,2013-04-03 22:09:00,
2013-04-03 18:10:00,60.5,40.9,29.71,SW,220,0.0,0.0,48,0.00,,,0.00,VWS V14.01,2013-04-03 22:10:00,
2013-04-03 18:14:00,60.0,40.4,29.71,NE,43,2.7,3.6,48,0.00,,,0.00,VWS V14.01,2013-04-03 22:14:00,
2013-04-03 18:19:00,59.8,40.2,29.71,NE,44,0.0,3.6,48,0.00,,,0.00,VWS V14.01,2013-04-03 22:19:00,
2013-04-03 18:24:00,59.8,40.2,29.71,SSE,164,3.1,3.1,48,0.00,,,0.00,VWS V14.01,2013-04-03 22:24:00,
2013-04-03 18:29:00,59.8,40.2,29.71,North,0,3.1,3.1,48,0.00,,,0.00,VWS V14.01,2013-04-03 22:29:00,
2013-04-03 18:30:00,59.8,40.2,29.71,North,0,0.0,3.1,48,0.00,,,0.00,VWS V14.01,2013-04-03 22:30:00,
2013-04-03 18:34:00,59.1,40.8,29.71,North,0,0.0,0.0,51,0.00,,,0.00,VWS V14.01,2013-04-03 22:34:00,
2013-04-03 18:39:00,58.9,40.6,29.71,North,357,0.0,2.7,51,0.00,,,0.00,VWS V14.01,2013-04-03 22:39:00,
2013-04-03 18:44:00,58.9,40.6,29.71,ENE,72,0.0,0.0,51,0.00,,,0.00,VWS V14.01,2013-04-03 22:44:00,
2013-04-03 18:49:00,58.9,40.6,29.71,ENE,72,0.0,0.0,51,0.00,,,0.00,VWS V14.01,2013-04-03 22:49:00,
2013-04-03 18:50:00,58.9,40.6,29.71,ENE,72,0.0,0.0,51,0.00,,,0.00,VWS V14.01,2013-04-03 22:50:00,
2013-04-03 18:54:00,58.9,40.6,29.71,SW,232,0.0,0.0,51,0.00,,,0.00,VWS V14.01,2013-04-03 22:54:00,
2013-04-03 18:59:00,58.2,40.0,29.71,WSW,243,0.0,0.0,51,0.00,,,0.00,VWS V14.01,2013-04-03 22:59:00,
2013-04-03 19:00:00,58.2,40.0,29.71,WSW,243,0.0,0.0,51,0.00,,,0.00,VWS V14.01,2013-04-03 23:00:00,
2013-04-03 19:04:00,58.0,39.8,29.71,WSW,242,0.0,0.0,51,0.00,,,0.00,VWS V14.01,2013-04-03 23:04:00,
2013-04-03 19:09:00,58.0,39.8,29.71,WSW,245,0.0,2.2,51,0.00,,,0.00,VWS V14.01,2013-04-03 23:09:00,
2013-04-03 19:10:00,58.0,39.8,29.71,WSW,245,0.0,2.2,51,0.00,,,0.00,VWS V14.01,2013-04-03 23:10:00,
2013-04-03 19:14:00,57.8,39.6,29.71,WSW,245,0.0,0.0,51,0.00,,,0.00,VWS V14.01,2013-04-03 23:14:00,
2013-04-03 19:19:00,57.8,39.6,29.71,WSW,245,0.0,0.0,51,0.00,,,0.00,VWS V14.01,2013-04-03 23:19:00,
2013-04-03 19:20:00,57.8,39.6,29.71,WSW,245,0.0,0.0,51,0.00,,,0.00,VWS V14.01,2013-04-03 23:20:00,
2013-04-03 19:30:00,57.5,39.3,29.71,South,173,0.0,2.2,51,0.00,,,0.00,VWS V14.01,2013-04-03 23:30:00,
2013-04-03 19:40:00,57.3,39.1,29.71,SW,217,0.0,2.7,51,0.00,,,0.00,VWS V14.01,2013-04-03 23:40:00,
2013-04-03 19:45:00,56.7,40.9,29.71,SW,217,0.0,0.0,55,0.00,,,0.00,VWS V14.01,2013-04-03 23:45:00,
2013-04-03 19:50:00,56.6,40.7,29.71,SSW,212,0.0,0.0,55,0.00,,,0.00,VWS V14.01,2013-04-03 23:50:00,
2013-04-03 19:55:00,56.4,40.5,29.71,South,179,0.0,0.0,55,0.00,,,0.00,VWS V14.01,2013-04-03 23:55:00,
2013-04-03 20:00:00,56.4,40.5,29.71,SW,216,0.0,3.1,55,0.00,,,0.00,VWS V14.01,2013-04-04 00:00:00,
2013-04-03 20:05:00,56.4,40.5,29.71,WSW,238,0.0,0.0,55,0.00,,,0.00,VWS V14.01,2013-04-04 00:05:00,
2013-04-03 20:10:00,55.8,41.1,29.71,WSW,253,0.0,2.7,58,0.00,,,0.00,VWS V14.01,2013-04-04 00:10:00,
2013-04-03 20:15:00,55.7,40.9,29.71,SW,214,0.0,2.2,58,0.00,,,0.00,VWS V14.01,2013-04-04 00:15:00,
2013-04-03 20:20:00,55.7,41.9,29.71,SSW,207,0.0,2.2,60,0.00,,,0.00,VWS V14.01,2013-04-04 00:20:00,
2013-04-03 20:25:00,55.7,41.9,29.71,South,186,0.0,0.0,60,0.00,,,0.00,VWS V14.01,2013-04-04 00:25:00,
2013-04-03 20:30:00,55.7,41.9,29.71,South,185,0.0,0.0,60,0.00,,,0.00,VWS V14.01,2013-04-04 00:30:00,
2013-04-03 20:35:00,53.9,44.8,29.71,South,187,0.0,0.0,71,0.00,,,0.00,VWS V14.01,2013-04-04 00:35:00,
2013-04-03 20:40:00,53.7,44.6,29.71,South,170,0.0,0.0,71,0.00,,,0.00,VWS V14.01,2013-04-04 00:40:00,
2013-04-03 20:45:00,53.7,44.6,29.71,South,170,0.0,0.0,71,0.00,,,0.00,VWS V14.01,2013-04-04 00:45:00,
2013-04-03 20:50:00,53.7,44.6,29.71,South,170,0.0,0.0,71,0.00,,,0.00,VWS V14.01,2013-04-04 00:50:00,
2013-04-03 20:55:00,53.0,47.9,29.71,South,170,0.0,0.0,83,0.00,,,0.00,VWS V14.01,2013-04-04 00:55:00,
2013-04-03 21:00:00,52.8,48.4,29.71,South,170,0.0,0.0,85,0.00,,,0.00,VWS V14.01,2013-04-04 01:00:00,
2013-04-03 21:05:00,52.6,48.3,29.71,South,170,0.0,0.0,85,0.00,,,0.00,VWS V14.01,2013-04-04 01:05:00,
2013-04-03 21:09:00,51.9,49.0,29.71,South,170,0.0,0.0,90,0.00,,,0.00,VWS V14.01,2013-04-04 01:09:00,
2013-04-03 21:10:00,51.9,49.0,29.71,South,170,0.0,0.0,90,0.00,,,0.00,VWS V14.01,2013-04-04 01:10:00,
2013-04-03 21:15:00,51.9,49.0,29.71,South,170,0.0,0.0,90,0.00,,,0.00,VWS V14.01,2013-04-04 01:15:00,
2013-04-03 21:20:00,51.2,51.2,29.71,South,170,0.0,0.0,100,0.00,,,0.00,VWS V14.01,2013-04-04 01:20:00,
2013-04-03 21:25:00,50.8,50.8,29.71,SSW,195,0.0,0.0,100,0.00,,,0.00,VWS V14.01,2013-04-04 01:25:00,
2013-04-03 21:30:00,50.1,50.1,29.71,SSW,195,0.0,0.0,100,0.00,,,0.00,VWS V14.01,2013-04-04 01:30:00,
2013-04-03 21:35:00,50.1,50.1,29.71,South,191,0.0,2.2,100,0.00,,,0.00,VWS V14.01,2013-04-04 01:35:00,
2013-04-03 21:40:00,50.1,50.1,29.71,SSW,202,0.0,2.2,100,0.00,,,0.00,VWS V14.01,2013-04-04 01:40:00,
2013-04-03 21:45:00,49.2,49.2,29.71,SSW,202,0.0,0.0,100,0.00,,,0.00,VWS V14.01,2013-04-04 01:45:00,
2013-04-03 21:50:00,49.0,49.0,29.71,SSW,202,0.0,0.0,100,0.00,,,0.00,VWS V14.01,2013-04-04 01:50:00,
2013-04-03 21:55:00,48.6,48.6,29.71,SSW,202,0.0,0.0,100,0.00,,,0.00,VWS V14.01,2013-04-04 01:55:00,
2013-04-03 22:00:00,48.6,48.6,29.71,SSW,202,0.0,0.0,100,0.00,,,0.00,VWS V14.01,2013-04-04 02:00:00,
2013-04-03 22:05:00,48.5,48.5,29.71,SSW,202,0.0,0.0,100,0.00,,,0.00,VWS V14.01,2013-04-04 02:05:00,
2013-04-03 22:10:00,48.3,48.3,29.71,SW,223,0.0,0.0,100,0.00,,,0.00,VWS V14.01,2013-04-04 02:10:00,
2013-04-03 22:15:00,48.3,48.3,29.71,SSW,212,0.0,0.0,100,0.00,,,0.00,VWS V14.01,2013-04-04 02:15:00,
2013-04-03 22:20:00,48.3,48.3,29.71,SE,136,0.0,0.0,100,0.00,,,0.00,VWS V14.01,2013-04-04 02:20:00,
2013-04-03 22:25:00,48.3,48.3,29.71,WSW,238,0.0,0.0,100,0.00,,,0.00,VWS V14.01,2013-04-04 02:25:00,
2013-04-03 22:30:00,48.3,48.3,29.71,SSE,159,0.0,0.0,100,0.00,,,0.00,VWS V14.01,2013-04-04 02:30:00,
2013-04-03 22:35:00,48.3,48.3,29.71,SSW,199,0.0,0.0,100,0.00,,,0.00,VWS V14.01,2013-04-04 02:35:00,
2013-04-03 22:40:00,48.5,48.5,29.71,SSW,208,0.0,0.0,100,0.00,,,0.00,VWS V14.01,2013-04-04 02:40:00,
2013-04-03 22:45:00,48.5,48.5,29.71,South,190,0.0,0.0,100,0.00,,,0.00,VWS V14.01,2013-04-04 02:45:00,
2013-04-03 22:50:00,48.5,48.5,29.74,SSW,200,0.0,0.0,100,0.00,,,0.00,VWS V14.01,2013-04-04 02:50:00,
2013-04-03 22:55:00,48.6,48.6,29.74,South,177,0.0,0.0,100,0.00,,,0.00,VWS V14.01,2013-04-04 02:55:00,
2013-04-03 23:00:00,48.6,48.6,29.74,SSE,165,3.1,3.1,100,0.00,,,0.00,VWS V14.01,2013-04-04 03:00:00,
2013-04-03 23:05:00,48.6,48.6,29.74,SW,225,3.1,3.1,100,0.00,,,0.00,VWS V14.01,2013-04-04 03:05:00,
2013-04-03 23:11:00,48.6,48.6,29.74,WSW,258,0.0,2.2,100,0.00,,,0.00,VWS V14.01,2013-04-04 03:11:00,
2013-04-03 23:16:00,49.2,49.2,29.71,South,174,0.0,2.2,100,0.00,,,0.00,VWS V14.01,2013-04-04 03:16:00,
2013-04-03 23:20:00,49.2,49.2,29.71,South,174,0.0,2.2,100,0.00,,,0.00,VWS V14.01,2013-04-04 03:20:00,
2013-04-03 23:21:00,49.2,49.2,29.71,South,174,0.0,0.0,100,0.00,,,0.00,VWS V14.01,2013-04-04 03:21:00,
2013-04-03 23:26:00,49.2,49.2,29.71,SW,227,0.0,0.0,100,0.00,,,0.00,VWS V14.01,2013-04-04 03:26:00,
2013-04-03 23:31:00,49.2,49.2,29.71,South,181,0.0,0.0,100,0.00,,,0.00,VWS V14.01,2013-04-04 03:31:00,
2013-04-03 23:36:00,49.2,49.2,29.71,South,187,0.0,0.0,100,0.00,,,0.00,VWS V14.01,2013-04-04 03:36:00,
2013-04-03 23:41:00,49.0,49.0,29.71,WSW,239,0.0,0.0,100,0.00,,,0.00,VWS V14.01,2013-04-04 03:41:00,
2013-04-03 23:50:00,49.0,49.0,29.71,SSW,207,0.0,2.7,100,0.00,,,0.00,VWS V14.01,2013-04-04 03:50:00,
2013-04-03 23:56:00,49.2,49.2,29.71,SW,232,0.0,0.0,100,0.00,,,0.00,VWS V14.01,2013-04-04 03:56:00,